Weather History for Stanley, ID

Change the Weather History Date:

Tuesday, August 6, 2013

  Actual Average Record
Temperature  
Mean Temperature 59 °F 58 °F  
Max Temperature 82 °F 80 °F 90 °F (2001)
Min Temperature 35 °F 37 °F 21 °F (1969)
Degree Days  
Heating Degree Days 6 7  
Month to date heating degree days 50 38  
Since 1 June heating degree days 562 733  
Since 1 July heating degree days 193 279  
Cooling Degree Days 0 0  
Month to date cooling degree days 0 0  
Year to date cooling degree days 19 3  
Since 1 June cooling degree days 19 3  
Growing Degree Days 9 (Base 50)    
Moisture  
Dew Point 25 °F    
Average Humidity 38    
Maximum Humidity 64    
Minimum Humidity 11    
Precipitation  
Precipitation 0.00 in 0.01 in 0.42 in (2009)
Month to date precipitation 0.04 0.11  
Year to date precipitation 6.27 10.72  
Sea Level Pressure  
Sea Level Pressure 29.93 in    
Wind  
Wind Speed 4 mph (SW)    
Max Wind Speed 14 mph    
Max Gust Speed 21 mph    
T = Trace of Precipitation, MM = Missing Value Source: NWS Daily Summary

Daily Weather History Graph

Daily Weather History Graph

Search for Another Location

Airport:

Trip Planner

Search our weather history database for the weather conditions in past years. The results will help you decide how hot, cold, wet, or windy it might be!

Date:

Astronomy

Aug. 06, 2013 Rise Set
Actual Time 6:33 AM MDT 8:57 PM MDT
Civil Twilight 6:00 AM MDT 9:29 PM MDT
Nautical Twilight 5:20 AM MDT 10:09 PM MDT
Astronomical Twilight 4:35 AM MDT 10:54 PM MDT
Moon 6:30 AM MDT (8/6) 8:30 PM MDT (8/6)
Length of Visible Light 15h 28m
Length of Day
14h 23m
Waning Crescent, 0% of the Moon is Illuminated
Aug 6
Waning Crescent
Aug 6
New
Aug 14
First Quarter
Aug 20
Full
Aug 28
Last Quarter

Hourly Weather History & Observations

Time (MDT) Temp. Windchill Dew Point Humidity Pressure Visibility Wind Dir Wind Speed Gust Speed Precip Events Conditions
12:51 AM 50.0 °F - 25.0 °F 38% 29.87 in - South 5.8 mph - N/A   Unknown
1:51 AM 46.0 °F 43.9 °F 25.0 °F 44% 29.88 in - SSE 4.6 mph - N/A   Unknown
2:51 AM 42.1 °F 40.2 °F 26.1 °F 53% 29.90 in - South 3.5 mph - N/A   Unknown
3:51 AM 42.1 °F 40.2 °F 26.1 °F 53% 29.91 in - SSE 3.5 mph - N/A   Unknown
4:51 AM 39.0 °F - 25.0 °F 57% 29.94 in - Calm Calm - N/A   Unknown
5:51 AM 37.0 °F 34.5 °F 27.0 °F 67% 29.97 in - SSE 3.5 mph - N/A   Unknown
6:51 AM 39.0 °F - 26.1 °F 60% 29.97 in - Calm Calm - N/A   Unknown
7:51 AM 44.1 °F - 28.0 °F 53% 29.98 in - Calm Calm - N/A   Unknown
8:51 AM 52.0 °F - 30.0 °F 43% 29.98 in - East 3.5 mph - N/A   Unknown
9:51 AM 60.1 °F - 32.0 °F 35% 29.96 in - Variable 3.5 mph - N/A   Unknown
10:51 AM 70.0 °F - 36.0 °F 29% 29.94 in - Variable 6.9 mph - N/A   Unknown
11:51 AM 75.0 °F - 28.0 °F 18% 29.94 in - West 9.2 mph 20.7 mph N/A   Unknown
12:51 PM 77.0 °F - 24.1 °F 14% 29.92 in - West 10.4 mph 16.1 mph N/A   Unknown
1:51 PM 78.1 °F - 21.0 °F 12% 29.92 in - West 4.6 mph 19.6 mph N/A   Unknown
2:51 PM 79.0 °F - 21.0 °F 12% 29.92 in - Variable 4.6 mph - N/A   Unknown
3:51 PM 79.0 °F - 21.9 °F 12% 29.91 in - West 5.8 mph 16.1 mph N/A   Unknown
4:51 PM 81.0 °F - 21.9 °F 11% 29.91 in - NW 9.2 mph - N/A   Unknown
5:51 PM 79.0 °F - 24.1 °F 13% 29.92 in - West 5.8 mph - N/A   Unknown
6:51 PM 78.1 °F - 21.0 °F 12% 29.90 in - West 5.8 mph - N/A   Unknown
7:51 PM 77.0 °F - 19.9 °F 12% 29.88 in - West 3.5 mph - N/A   Unknown
8:51 PM 64.9 °F - 24.1 °F 21% 29.91 in - SSW 3.5 mph - N/A   Unknown
9:51 PM 54.0 °F - 24.1 °F 31% 29.94 in - South 5.8 mph - N/A   Unknown
10:51 PM 52.0 °F - 21.9 °F 31% 29.93 in - SSE 3.5 mph - N/A   Unknown
11:51 PM 48.0 °F - 23.0 °F 37% 29.93 in - Calm Calm - N/A   Unknown